TimeMDT,TemperatureF,Dew PointF,Humidity,Sea Level PressureIn,VisibilityMPH,Wind Direction,Wind SpeedMPH,Gust SpeedMPH,PrecipitationIn,Events,Conditions,WindDirDegrees,DateUTC
1:53 AM,36.0,21.9,57,29.94,10.0,WNW,8.1,-,N/A,,Clear,290,2013-04-26 07:53:00
2:53 AM,35.1,21.9,59,29.94,10.0,WNW,10.4,-,N/A,,Clear,300,2013-04-26 08:53:00
3:53 AM,39.0,19.9,46,29.94,10.0,NNW,11.5,-,N/A,,Clear,330,2013-04-26 09:53:00
4:53 AM,39.9,19.0,43,29.97,10.0,NW,12.7,-,N/A,,Clear,310,2013-04-26 10:53:00
5:53 AM,37.0,19.9,50,30.00,10.0,NW,13.8,-,N/A,,Clear,320,2013-04-26 11:53:00
6:53 AM,42.1,21.9,45,30.04,10.0,NNW,10.4,-,N/A,,Clear,330,2013-04-26 12:53:00
7:53 AM,48.0,24.1,39,30.07,10.0,NNW,12.7,-,N/A,,Clear,330,2013-04-26 13:53:00
8:53 AM,57.0,23.0,27,30.10,10.0,NNE,12.7,-,N/A,,Clear,20,2013-04-26 14:53:00
9:53 AM,64.0,21.9,20,30.10,10.0,NNE,15.0,-,N/A,,Clear,20,2013-04-26 15:53:00
10:53 AM,66.0,16.0,15,30.12,10.0,NNE,16.1,-,0.00,Rain,Light Rain,30,2013-04-26 16:53:00
11:53 AM,68.0,19.0,15,30.12,10.0,NNE,15.0,26.5,0.00,,Clear,20,2013-04-26 17:53:00
12:53 PM,69.1,19.0,15,30.10,10.0,NNE,12.7,23.0,N/A,,Clear,30,2013-04-26 18:53:00
1:53 PM,68.0,17.1,14,30.12,10.0,Variable,5.8,-,N/A,,Clear,0,2013-04-26 19:53:00
2:53 PM,69.1,17.1,14,30.11,10.0,ENE,10.4,19.6,N/A,,Clear,60,2013-04-26 20:53:00
3:53 PM,69.1,17.1,14,30.11,10.0,NNE,10.4,-,N/A,,Clear,20,2013-04-26 21:53:00
4:53 PM,66.0,18.0,16,30.11,10.0,NE,8.1,-,N/A,,Partly Cloudy,40,2013-04-26 22:53:00
5:53 PM,66.9,19.0,16,30.12,10.0,ENE,12.7,-,N/A,,Partly Cloudy,70,2013-04-26 23:53:00
6:53 PM,64.0,21.0,19,30.12,10.0,East,8.1,-,N/A,,Partly Cloudy,90,2013-04-27 00:53:00
7:53 PM,54.0,23.0,30,30.13,10.0,ESE,8.1,-,N/A,,Clear,110,2013-04-27 01:53:00
8:53 PM,46.0,23.0,40,30.14,10.0,SE,8.1,-,N/A,,Clear,130,2013-04-27 02:53:00
9:53 PM,42.1,21.9,45,30.15,10.0,SE,3.5,-,N/A,,Clear,140,2013-04-27 03:53:00
10:53 PM,41.0,23.0,49,30.14,10.0,South,8.1,-,N/A,,Clear,170,2013-04-27 04:53:00
11:53 PM,41.0,23.0,49,30.14,10.0,South,6.9,-,N/A,,Clear,190,2013-04-27 05:53:00